Temp
-6 -6 -5 -5 -5 -6 -5 -5 -5 -5 -6 -6 -5 -6 -6 -5 -5 -5 -5 -5 -5 -5 -5 -5 -5 -4 -5 -5 -4 -5 -5 -5 -5 -5 -5 -5 -5 -6 -6 -6 -5 -5 -6
-6 -6 -6 -6 -5 -5 -5 -6 -5 -5 -5 -5 -6 -6 -6 -5 -5 -5 -5 -5 -5 -5 -5 -5 -5 -5 -5 -5 -4 -5 -4 -4 -5 -5 -5 -5 -5 -6 -6 -6 -5 -5 -6
-6 -6 -6 -6 -6 -6 -5 -5 -5 -5 -5 -5 -5 -6 -6 -6 -6 -5 -5 -5 -5 -5 -6 -5 -6 -5 -5 -5 -5 -5 -5 -5 -5 -5 -5 -5 -5 -5 -5 -5 -6 -6 -6
-6 -6 -6 -6 -5 -5 -5 -5 -5 -5 -5 -6 -6 -6 -6 -5 -5 -5 -5 -6 -6 -6 -5 -5 -6 -5 -6 -5 -5 -5 -5 -5 -5 -5 -6 -6 -6 -5 -6 -6 -6 -6 -6
-6 -6 -6 -6 -5 -5 -5 -5 -5 -5 -5 -6 -6 -6 -6 -5 -5 -5 -5 -5 -6 -6 -6 -6 -6 -6 -5 -6 -5 -5 -6 -5 -5 -6 -5 -5 -6 -5 -5 -5 -6 -6 -6
-6 -5 -6 -6 -5 -5 -5 -5 -5 -5 -5 -6 -5 -5 -5 -5 -6 -6 -6 -6 -6 -6 -6 -6 -6 -6 -6 -5 -6 -6 -5 -5 -6 -6 -6 -6 -6 -6 -6 -5 -5 -5 -6
-6 -6 -6 -6 -6 -5 -5 -5 -5 -5 -5 -6 -6 -6 -5 -5 -6 -6 -6 -6 -6 -6 -6 -6 -6 -6 -6 -6 -6 -6 -6 -6 -6 -6 -6 -6 -6 -6 -6 -6 -5 -5 -5
-8 -6 -7 -7 -7 -6 -5 -5 -5 -5 -5 -6 -6 -6 -6 -6 -6 -6 -6 -6 -6 -6 -6 -7 -7 -7 -6 -6 -6 -6 -6 -6 -6 -6 -6 -5 -6 -6 -6 -6 -6 -6 -5
-8 -7 -7 -7 -7 -7 -6 -5 -5 -5 -5 -5 -6 -6 -6 -6 -6 -6 -6 -6 -6 -6 -7 -7 -7 -7 -7 -7 -7 -6 -6 -6 -6 -6 -6 -6 -6 -6 -6 -6 -6 -6 -6
-6 -8 -6 -7 -7 -7 -6 -6 -6 -6 -6 -6 -6 -6 -6 -6 -6 -6 -7 -6 -6 -6 -7 -7 -7 -7 -7 -7 -7 -7 -7 -7 -7 -7 -7 -7 -6 -6 -6 -6 -6 -6 -6
-6 -7 -7 -7 -7 -7 -6 -6 -6 -6 -6 -6 -6 -6 -6 -6 -6 -6 -6 -6 -7 -7 -7 -7 -7 -7 -7 -7 -7 -7 -7 -7 -7 -7 -7 -7 -7 -7 -6 -6 -6 -6 -6
-7 -7 -8 -8 -7 -7 -6 -6 -6 -6 -6 -6 -6 -6 -6 -6 -6 -6 -6 -7 -7 -7 -7 -7 -7 -7 -7 -7 -7 -7 -7 -7 -7 -7 -7 -7 -7 -7 -7 -7 -6 -7 -6
-7 -7 -7 -8 -8 -7 -7 -6 -6 -6 -7 -7 -6 -7 -7 -7 -7 -7 -6 -7 -7 -7 -7 -7 -7 -6 -6 -7 -7 -7 -7 -7 -7 -7 -7 -7 -8 -7 -7 -7 -7 -6 -7
-8 -7 -8 -8 -8 -8 -8 -7 -7 -7 -7 -7 -7 -7 -7 -7 -7 -7 -7 -7 -7 -7 -7 -7 -7 -7 -7 -7 -7 -7 -7 -7 -7 -7 -7 -8 -8 -7 -7 -7 -7 -7 -6
-8 -8 -8 -8 -8 -8 -8 -8 -8 -8 -8 -7 -7 -7 -7 -7 -7 -7 -7 -7 -7 -7 -7 -7 -7 -7 -7 -7 -8 -7 -7 -7 -7 -7 -7 -8 -7 -7 -7 -7 -7 -6 -6
-8 -8 -8 -8 -8 -8 -8 -8 -8 -8 -8 -8 -8 -8 -8 -7 -7 -8 -8 -8 -8 -8 -7 -7 -7 -7 -7 -7 -7 -7 -7 -7 -7 -7 -7 -7 -7 -7 -6 -6 -6 -6 -6
-9 -9 -9 -8 -8 -9 -9 -8 -8 -8 -8 -8 -8 -8 -8 -8 -8 -8 -8 -8 -8 -8 -8 -8 -7 -7 -7 -7 -7 -7 -7 -7 -7 -7 -7 -7 -7 -7 -7 -7 -6 -6 -6
-9 -9 -9 -9 -9 -9 -9 -9 -9 -9 -9 -9 -9 -8 -8 -8 -8 -8 -8 -8 -8 -8 -8 -8 -8 -8 -8 -7 -7 -7 -7 -7 -7 -7 -6 -6 -6 -6 -6 -6 -6 -6 -6
-10 -10 -9 -10 -10 -10 -10 -9 -9 -9 -9 -9 -9 -9 -9 -8 -8 -8 -8 -8 -8 -8 -8 -8 -9 -8 -8 -8 -7 -7 -7 -7 -7 -6 -6 -6 -6 -5 -5 -5 -6 -6 -6
-10 -10 -10 -10 -10 -10 -10 -10 -10 -10 -10 -10 -10 -10 -9 -9 -8 -8 -8 -8 -8 -8 -8 -8 -9 -9 -8 -7 -7 -7 -7 -7 -6 -7 -6 -6 -5 -5 -5 -5 -5 -5 -6
-10 -10 -10 -10 -10 -10 -10 -10 -10 -10 -10 -10 -10 -10 -9 -9 -9 -9 -9 -8 -8 -9 -8 -8 -8 -8 -8 -7 -7 -7 -7 -6 -6 -6 -6 -6 -5 -5 -5 -5 -5 -4 -4
-10 -11 -11 -10 -10 -10 -10 -10 -10 -10 -10 -10 -10 -9 -9 -9 -9 -9 -8 -8 -8 -8 -8 -8 -8 -8 -8 -7 -7 -7 -7 -6 -6 -6 -5 -5 -5 -5 -5 -5 -5 -4 -4
-10 -11 -11 -11 -11 -11 -10 -10 -10 -10 -10 -10 -10 -9 -9 -9 -9 -8 -8 -8 -8 -8 -8 -8 -8 -8 -8 -8 -8 -7 -7 -6 -6 -5 -5 -5 -5 -5 -5 -5 -4 -4 -4
-11 -11 -11 -11 -11 -11 -11 -11 -10 -10 -10 -10 -10 -9 -9 -9 -9 -8 -8 -7 -8 -8 -8 -8 -8 -8 -9 -9 -8 -8 -7 -6 -6 -6 -6 -5 -5 -5 -4 -4 -4 -4 -4
-11 -11 -11 -11 -11 -11 -11 -11 -11 -10 -11 -10 -10 -10 -9 -9 -9 -9 -8 -8 -7 -7 -8 -8 -8 -9 -9 -9 -8 -7 -6 -6 -6 -6 -6 -5 -5 -5 -4 -4 -3 -3 -4
-11 -11 -11 -11 -11 -11 -11 -11 -11 -11 -11 -10 -10 -10 -9 -9 -9 -8 -8 -8 -8 -7 -7 -8 -9 -9 -10 -10 -9 -7 -7 -6 -6 -6 -6 -5 -5 -4 -4 -4 -4 -4 -4
Height
5896 5895 5895 5894 5896 5897 5896 5898 5899 5901 5902 5904 5907 5909 5912 5914 5917 5918 5920 5923 5926 5929 5931 5934 5935 5936 5938 5942 5939 5938 5938 5941 5942 5940 5940 5944 5945 5941 5941 5938 5937 5933 5931
5897 5895 5895 5895 5895 5895 5897 5898 5897 5899 5902 5904 5906 5908 5911 5914 5917 5919 5921 5922 5925 5929 5930 5933 5934 5934 5937 5938 5940 5943 5940 5940 5942 5941 5942 5943 5943 5942 5941 5936 5938 5934 5928
5895 5895 5895 5895 5895 5895 5896 5896 5898 5900 5902 5903 5905 5908 5910 5912 5915 5918 5920 5922 5925 5927 5930 5933 5935 5933 5935 5940 5940 5941 5939 5940 5939 5939 5941 5943 5937 5941 5939 5939 5936 5940 5936
5894 5894 5894 5894 5894 5894 5894 5896 5896 5898 5900 5902 5905 5907 5909 5910 5912 5915 5917 5920 5923 5925 5928 5930 5932 5931 5933 5935 5937 5938 5940 5940 5936 5937 5938 5940 5940 5941 5939 5939 5938 5937 5935
5893 5893 5893 5893 5894 5894 5894 5894 5896 5896 5898 5900 5902 5904 5907 5909 5911 5913 5915 5918 5921 5923 5926 5928 5929 5930 5933 5935 5937 5938 5940 5940 5937 5938 5938 5939 5939 5939 5939 5939 5938 5938 5936
5891 5891 5892 5893 5893 5894 5894 5895 5895 5896 5896 5898 5900 5901 5903 5906 5908 5910 5912 5914 5917 5921 5923 5925 5927 5928 5929 5932 5935 5937 5937 5935 5936 5937 5938 5938 5938 5938 5938 5938 5939 5939 5937
5889 5891 5890 5891 5892 5893 5894 5895 5895 5896 5895 5896 5898 5900 5902 5903 5905 5907 5909 5912 5915 5916 5918 5922 5925 5927 5928 5927 5928 5930 5931 5933 5935 5936 5937 5937 5937 5937 5937 5936 5936 5937 5936
5889 5889 5889 5889 5890 5891 5893 5893 5894 5895 5895 5895 5897 5898 5900 5901 5903 5905 5908 5910 5912 5914 5916 5919 5921 5923 5925 5927 5927 5928 5929 5931 5932 5933 5933 5934 5934 5934 5935 5934 5933 5934 5934
5889 5886 5889 5888 5889 5889 5890 5892 5893 5893 5894 5895 5895 5897 5898 5900 5902 5903 5906 5907 5909 5911 5914 5915 5918 5920 5922 5923 5924 5926 5926 5926 5927 5928 5929 5929 5929 5930 5930 5930 5930 5930 5931
5884 5887 5886 5885 5886 5885 5887 5889 5890 5891 5892 5894 5894 5896 5897 5899 5900 5902 5903 5904 5905 5908 5910 5912 5914 5915 5917 5918 5920 5922 5922 5923 5922 5924 5924 5924 5924 5924 5924 5925 5925 5925 5925
5880 5885 5883 5883 5883 5884 5884 5886 5888 5888 5889 5891 5893 5894 5895 5897 5898 5899 5900 5902 5903 5904 5906 5908 5909 5911 5912 5913 5914 5916 5918 5919 5918 5919 5919 5919 5920 5920 5919 5919 5919 5919 5919
5878 5879 5880 5879 5880 5881 5882 5883 5884 5885 5887 5889 5891 5892 5893 5895 5897 5897 5898 5899 5900 5902 5903 5904 5905 5906 5907 5909 5910 5911 5913 5914 5914 5913 5913 5914 5914 5914 5914 5914 5914 5914 5913
5873 5874 5874 5876 5877 5878 5878 5880 5881 5882 5884 5886 5888 5889 5891 5893 5894 5895 5896 5897 5897 5898 5899 5899 5900 5902 5903 5904 5906 5907 5907 5908 5908 5909 5909 5908 5908 5907 5907 5906 5907 5907 5907
5867 5868 5869 5871 5873 5875 5875 5876 5877 5880 5882 5884 5885 5886 5889 5890 5890 5891 5892 5893 5894 5895 5895 5896 5897 5899 5900 5900 5901 5901 5902 5903 5904 5904 5903 5903 5902 5902 5900 5899 5899 5899 5899
5860 5863 5864 5867 5869 5870 5872 5873 5875 5877 5879 5881 5882 5883 5885 5886 5887 5887 5887 5888 5889 5889 5890 5891 5892 5893 5895 5896 5896 5897 5897 5898 5899 5898 5898 5897 5896 5894 5893 5892 5891 5890 5890
5853 5858 5860 5862 5865 5867 5869 5870 5872 5874 5876 5877 5878 5879 5880 5881 5882 5882 5884 5884 5885 5885 5886 5887 5887 5888 5888 5891 5891 5891 5892 5893 5893 5893 5891 5890 5888 5887 5885 5884 5883 5882 5880
5850 5854 5854 5857 5860 5862 5865 5867 5868 5870 5872 5873 5874 5876 5876 5877 5877 5877 5878 5879 5879 5880 5881 5882 5883 5883 5885 5882 5869 5879 5886 5887 5887 5886 5885 5883 5882 5879 5878 5877 5876 5874 5873
5845 5847 5848 5850 5854 5857 5859 5861 5864 5866 5867 5868 5870 5871 5872 5873 5873 5873 5873 5873 5873 5874 5875 5875 5877 5878 5878 5876 5872 5876 5880 5880 5880 5879 5878 5876 5875 5872 5870 5869 5869 5867 5865
5836 5840 5842 5844 5848 5851 5853 5856 5858 5859 5861 5862 5863 5864 5866 5868 5868 5868 5868 5867 5866 5866 5867 5867 5869 5869 5871 5872 5873 5872 5873 5873 5872 5872 5869 5867 5866 5864 5861 5860 5860 5859 5859
5830 5832 5835 5837 5841 5843 5846 5849 5851 5852 5852 5854 5855 5856 5857 5858 5860 5859 5859 5860 5859 5859 5857 5857 5860 5861 5864 5865 5866 5867 5866 5865 5865 5863 5861 5858 5856 5855 5852 5850 5850 5850 5849
5821 5824 5826 5830 5834 5836 5839 5842 5843 5845 5847 5848 5850 5850 5851 5851 5850 5851 5852 5852 5851 5850 5851 5849 5852 5854 5856 5857 5858 5858 5859 5858 5857 5855 5852 5850 5847 5846 5844 5842 5840 5839 5838
5810 5814 5817 5821 5825 5829 5831 5834 5836 5839 5841 5842 5843 5845 5844 5844 5844 5842 5842 5841 5841 5840 5841 5843 5843 5844 5849 5849 5849 5850 5850 5850 5849 5846 5843 5841 5838 5836 5834 5832 5830 5829 5829
5798 5805 5807 5812 5817 5820 5823 5827 5829 5831 5833 5835 5837 5838 5837 5837 5836 5834 5833 5832 5831 5830 5831 5833 5835 5837 5840 5841 5841 5842 5843 5842 5841 5837 5834 5832 5829 5827 5824 5822 5821 5820 5819
5785 5794 5796 5803 5807 5810 5814 5819 5820 5823 5826 5829 5830 5831 5831 5830 5828 5825 5822 5820 5819 5819 5819 5821 5823 5827 5829 5831 5834 5834 5834 5834 5831 5828 5826 5823 5821 5819 5816 5814 5812 5810 5809
5774 5781 5786 5794 5797 5801 5805 5810 5813 5816 5819 5821 5823 5824 5824 5823 5821 5818 5812 5808 5807 5805 5806 5809 5813 5816 5820 5824 5826 5826 5826 5824 5822 5821 5817 5814 5812 5810 5807 5804 5802 5800 5800
5761 5768 5773 5782 5785 5790 5797 5801 5804 5808 5811 5814 5816 5817 5817 5817 5815 5812 5807 5799 5794 5796 5796 5796 5801 5806 5811 5815 5821 5819 5817 5815 5814 5812 5809 5806 5803 5802 5799 5797 5795 5793 5792
Wind_Speed
8 8 5 4 3 2 4 5 6 5 6 6 5 4 4 6 8 9 14 17 15 14 13 13 13 11 7 5 6 5 2 2 1 4 5 7 7 10 8 6 9 6 5
4 6 6 4 2 2 2 5 7 6 7 7 7 6 5 6 6 8 13 13 11 13 13 12 12 13 12 6 3 6 4 13 3 4 2 8 4 6 3 6 9 8 11
1 3 7 4 3 2 2 3 6 9 8 9 9 8 9 8 8 8 14 16 15 13 13 13 13 15 12 10 11 6 6 8 5 5 5 1 6 5 3 5 6 5 4
2 2 4 7 4 4 3 3 4 5 6 7 9 10 12 12 13 10 8 13 15 14 14 15 15 16 14 12 9 7 10 12 6 7 8 6 6 5 5 4 3 8 9
13 5 2 6 6 5 5 4 4 5 5 7 9 10 10 12 11 11 9 10 14 17 16 16 19 19 17 14 14 14 13 12 8 9 9 8 7 7 6 3 6 5 6
15 12 2 3 6 4 6 5 5 4 4 5 7 9 11 11 11 12 13 12 13 15 14 13 18 19 18 15 14 15 13 10 12 14 12 12 10 10 10 9 6 5 4
21 14 9 5 7 5 4 6 6 6 4 5 5 8 11 11 10 9 10 11 13 16 17 15 16 18 18 18 17 15 14 14 15 17 16 15 14 13 12 12 9 8 8
24 17 12 8 8 10 6 7 8 7 6 5 6 6 8 9 9 11 10 9 11 12 12 13 14 16 18 19 19 18 18 19 18 17 17 18 17 16 16 16 16 13 12
21 23 11 9 10 13 11 7 8 8 8 7 7 8 9 10 11 11 11 10 10 10 11 14 15 17 17 18 20 19 20 21 21 19 19 18 20 20 20 19 20 20 17
26 16 15 11 11 14 11 6 7 8 8 9 9 8 8 9 10 10 12 12 12 11 11 13 14 15 18 19 19 20 22 20 20 20 20 20 21 21 22 24 24 23 22
25 12 17 14 13 12 10 9 9 7 7 10 10 10 10 10 10 12 13 14 15 14 15 16 17 18 19 19 20 20 21 21 22 23 23 24 25 26 26 26 25 26 28
22 17 18 14 15 15 13 13 12 7 7 7 10 12 11 10 13 15 15 15 15 16 16 17 19 19 19 19 19 20 19 19 20 22 23 24 26 28 29 29 29 30 30
22 21 19 13 14 12 12 11 11 9 8 10 11 14 15 10 11 14 15 16 17 18 19 20 21 20 19 19 18 19 20 21 21 21 20 17 18 25 29 31 31 32 33
27 22 20 15 14 10 6 7 8 10 10 8 6 6 11 12 13 13 15 18 20 20 20 21 21 21 20 20 19 20 21 22 21 20 24 27 27 27 27 27 29 31 32
27 22 23 19 16 12 15 11 9 9 9 9 9 9 10 11 13 15 16 20 23 24 24 25 25 24 22 21 21 22 21 20 21 23 22 25 27 29 28 27 28 29 31
34 21 22 23 20 15 13 12 10 8 7 9 12 12 13 15 15 14 16 20 22 25 26 27 26 24 24 23 23 20 22 22 21 23 24 26 28 29 28 29 29 30 31
39 29 24 24 22 17 15 14 14 12 12 13 14 14 15 15 17 19 20 19 23 25 26 28 27 28 24 26 25 23 23 22 22 24 26 27 28 31 31 31 30 30 29
35 27 26 25 22 19 20 20 20 18 18 18 17 16 15 16 18 18 21 23 26 26 27 28 26 27 27 29 25 21 23 23 25 27 27 28 30 31 33 31 28 29 28
32 29 28 27 25 23 24 21 19 19 20 21 20 20 20 21 23 25 24 25 26 26 24 30 28 29 26 27 27 29 28 28 28 29 29 29 30 31 33 30 29 29 27
34 31 30 30 28 27 27 24 23 22 23 24 23 25 25 26 26 27 27 28 29 27 33 32 30 30 28 28 29 31 29 26 27 29 30 31 31 31 31 30 30 30 32
36 33 34 34 33 32 31 30 30 26 28 28 28 27 29 30 31 31 29 28 27 32 31 25 32 33 30 29 27 29 31 28 30 31 31 31 32 31 30 28 29 29 30
37 35 36 38 37 36 35 34 32 31 30 30 30 29 30 33 33 35 33 32 34 36 38 33 30 32 33 32 30 32 31 30 31 32 32 31 31 31 30 30 31 31 32
43 39 40 39 40 40 41 40 36 35 36 32 27 28 30 32 33 35 36 36 37 37 35 34 31 28 31 33 33 32 30 32 31 31 33 32 31 31 32 32 33 33 34
47 44 45 42 40 41 43 41 42 40 37 31 27 26 27 29 32 34 36 38 37 38 41 41 39 39 38 32 32 31 31 33 31 31 31 30 28 27 28 31 33 34 31
50 50 50 43 46 44 44 42 42 40 36 32 28 26 26 25 28 32 38 34 37 37 39 41 41 35 33 27 27 28 31 31 30 30 28 27 26 26 27 26 28 28 26
52 53 55 47 50 48 47 42 40 38 37 34 32 29 28 26 27 28 28 26 22 40 47 42 31 31 27 22 27 27 27 28 28 27 26 25 23 25 24 23 24 23 22
Wind_Direction
350 352 355 359 37 276 283 234 213 207 212 219 241 249 199 193 208 227 205 203 205 211 217 214 216 226 204 185 193 187 212 96 312 332 301 17 42 55 21 26 58 28 95
347 345 345 316 317 318 230 214 242 224 222 227 228 238 204 189 198 213 202 197 206 214 221 223 231 239 222 256 282 235 219 212 239 253 314 64 93 349 38 38 46 18 16
13 339 334 328 287 260 270 241 209 210 211 222 227 228 223 225 229 223 222 220 217 223 225 229 230 248 248 218 225 246 258 273 275 296 280 349 1 326 359 34 13 43 9
13 354 342 323 267 262 241 210 200 205 212 218 224 234 234 239 246 248 243 228 219 220 225 238 232 225 251 235 243 248 257 271 283 293 290 295 297 314 333 21 37 351 352
340 359 317 307 297 268 251 239 213 183 206 229 234 234 232 241 241 237 234 227 220 219 231 240 240 240 240 236 243 251 251 258 269 264 273 279 289 295 300 314 334 349 333
334 340 311 270 292 297 277 270 263 204 178 198 233 237 236 232 228 220 218 231 228 221 224 247 238 236 248 245 242 243 249 263 257 258 260 263 271 280 282 289 284 287 310
313 325 328 279 284 277 297 270 270 266 190 191 212 228 225 220 218 215 231 225 223 235 235 229 231 234 244 256 262 267 268 267 264 260 259 260 263 263 271 278 286 287 288
294 308 321 326 286 280 264 263 251 252 235 198 204 219 227 214 209 203 206 221 221 213 213 222 226 232 240 248 255 259 261 263 266 267 267 265 263 267 270 269 272 273 276
265 289 304 312 316 292 279 273 272 252 249 214 199 204 211 210 204 199 200 208 213 206 207 216 225 229 241 244 249 254 258 260 261 263 268 269 269 266 267 272 274 274 274
274 269 288 294 310 291 286 286 291 261 243 228 206 206 212 212 211 213 210 207 216 220 217 231 236 236 239 244 252 256 260 264 267 267 268 271 272 275 273 269 270 273 273
279 266 273 281 287 279 277 275 290 286 255 239 224 205 208 215 217 215 220 221 222 225 222 235 237 241 247 253 256 260 266 267 267 267 270 272 274 274 273 274 272 268 269
277 273 257 267 282 276 267 272 267 279 263 252 237 212 206 224 232 225 228 230 233 237 238 236 242 244 248 252 257 261 266 269 271 275 275 275 274 275 276 272 272 275 273
274 257 252 256 276 268 265 259 249 256 250 247 248 241 235 232 249 247 236 237 237 241 245 249 250 253 257 259 261 263 267 268 271 272 272 288 294 291 277 277 274 271 271
283 257 242 247 263 241 270 239 240 252 257 250 222 216 227 254 257 255 245 243 246 245 245 250 254 257 260 261 261 262 263 269 274 278 275 273 285 289 286 280 276 275 275
270 256 242 237 244 242 253 264 244 240 253 260 247 239 241 246 260 258 250 247 247 247 246 245 248 251 253 255 259 265 267 272 273 275 279 282 284 287 286 282 279 278 277
272 265 246 242 246 238 241 233 237 234 245 248 251 249 254 255 257 264 272 269 260 254 254 256 256 255 254 252 259 260 264 267 273 279 284 287 289 288 285 283 281 279 283
270 266 248 247 244 236 239 226 229 241 243 246 253 263 272 267 271 272 272 278 276 271 267 266 263 254 258 249 252 242 257 266 275 280 283 288 291 288 284 284 284 283 279
265 260 242 241 238 240 237 241 248 250 254 258 260 264 267 275 284 284 284 279 282 282 276 270 270 262 252 250 269 260 263 272 282 284 290 293 288 290 288 283 284 289 290
250 251 247 242 239 239 247 251 254 254 255 262 267 272 272 273 278 284 284 282 281 273 276 271 266 265 256 264 266 267 274 280 280 285 290 291 289 291 294 291 283 280 284
241 245 243 241 240 239 246 252 257 261 268 271 275 280 285 288 292 293 289 286 278 282 282 274 260 261 258 262 268 271 276 274 282 287 289 289 288 291 291 287 282 277 273
237 236 238 236 238 241 245 245 249 254 263 268 273 277 285 288 294 290 288 287 286 274 277 269 263 255 258 258 263 268 274 280 289 290 288 288 290 291 291 292 290 285 276
232 229 234 235 234 238 244 249 254 256 262 264 272 276 280 284 289 292 295 289 286 278 273 272 282 262 255 254 255 264 274 283 287 288 288 290 293 297 298 297 297 295 291
228 225 231 234 232 237 242 247 252 255 265 271 272 274 279 284 286 292 293 286 282 277 271 270 268 269 263 259 259 266 276 282 284 287 291 297 301 301 299 297 293 291 289
234 225 230 230 233 235 240 245 251 256 263 268 270 275 280 280 292 290 291 283 276 270 263 262 267 265 270 254 258 267 279 282 285 291 295 298 298 296 293 293 292 289 285
229 228 229 228 232 234 239 242 247 254 258 263 267 274 273 283 295 295 297 287 277 270 263 258 264 262 250 249 265 276 280 282 290 294 299 301 299 297 299 297 296 292 286
227 228 229 226 231 235 237 240 244 248 253 260 267 270 270 278 291 294 313 313 284 262 263 265 244 242 219 236 262 277 285 293 297 302 303 302 300 299 298 308 303 295 287